Weather History for St. Kitts, Saint Kitts and Nevis

Change the Weather History Date:

Friday, October 12, 2012

  Actual Average Record
Temperature  
Mean Temperature 82 °F -  
Max Temperature 86 °F 84 °F 89 °F (2004)
Min Temperature 78 °F 76 °F 75 °F (2005)
Cooling Degree Days 17    
Growing Degree Days 32 (Base 50)    
Moisture  
Dew Point 76 °F    
Average Humidity 84    
Maximum Humidity 94    
Minimum Humidity 74    
Precipitation  
Precipitation 0.08 in - - ()
Sea Level Pressure  
Sea Level Pressure 29.84 in    
Wind  
Wind Speed 12 mph ()    
Max Wind Speed 20 mph    
Max Gust Speed 23 mph    
Visibility 7.3 miles    
Events Rain , Thunderstorm    
Averages and records for this station are not official NWS values.
T = Trace of Precipitation, MM = Missing Value Source: Averaged Metar Reports

Daily Weather History Graph

Daily Weather History Graph

Search for Another Location

Airport:

Trip Planner

Search our weather history database for the weather conditions in past years. The results will help you decide how hot, cold, wet, or windy it might be!

Date:

Astronomy

Oct. 12, 2012 Rise Set
Actual Time 6:03 AM AST 5:50 PM AST
Civil Twilight 5:41 AM AST 6:12 PM AST
Nautical Twilight 5:16 AM AST 6:37 PM AST
Astronomical Twilight 4:50 AM AST 7:02 PM AST
Moon 3:06 AM AST (10/12) 3:38 PM AST (10/12)
Length of Visible Light 12h 31m
Length of Day
11h 47m
Waning Crescent, 11% of the Moon is Illuminated
Oct 12
Waning Crescent
Oct 15
New
Oct 21
First Quarter
Oct 29
Full
Nov 6
Last Quarter

Hourly Weather History & Observations

Time (AST) Temp. Heat Index Dew Point Humidity Pressure Visibility Wind Dir Wind Speed Gust Speed Precip Events Conditions
6:00 AM 80.6 °F 86.2 °F 75.2 °F 84% 29.86 in 6.2 mi East 17.3 mph - N/A   Scattered Clouds
9:00 AM 84.2 °F 92.3 °F 75.2 °F 74% 29.89 in 6.2 mi ENE 19.6 mph - N/A   Mostly Cloudy
10:00 AM 84.2 °F 92.3 °F 75.2 °F 74% 29.89 in 6.2 mi East 18.4 mph - N/A   Mostly Cloudy
11:00 AM 86.0 °F 96.9 °F 77.0 °F 74% 29.89 in 6.2 mi ENE 16.1 mph - N/A   Scattered Clouds
12:00 PM 82.4 °F 90.9 °F 77.0 °F 84% 29.86 in 6.2 mi ENE 15.0 mph - N/A   Partly Cloudy
1:00 PM 86.0 °F 96.9 °F 77.0 °F 74% 29.83 in 6.2 mi ENE 16.1 mph - N/A   Partly Cloudy
2:00 PM 81 °F - 75 °F 78% 29.83 in 5 mi East 10.4 mph - -   Mostly Cloudy
2:00 PM 80.6 °F 86.2 °F 75.2 °F 84% 29.83 in 6.2 mi East 10.4 mph - N/A   Scattered Clouds
3:00 PM 80.6 °F 87.1 °F 77.0 °F 89% 29.80 in 6.2 mi NE 13.8 mph - N/A   Scattered Clouds
3:20 PM 80.6 °F 86.2 °F 75.2 °F 84% 29.80 in 6.2 mi NE 12.7 mph - N/A Thunderstorm Thunderstorm
4:00 PM 80.6 °F 87.1 °F 77.0 °F 89% 29.80 in 6.2 mi East 11.5 mph - N/A   Scattered Clouds
5:00 PM 81 °F - 77 °F 84% 29.81 in 18 mi East 9.2 mph - - Rain Light Rain Showers
5:00 PM 80.6 °F 87.1 °F 77.0 °F 89% 29.80 in 6.2 mi East 9.2 mph - N/A   Scattered Clouds
6:00 PM 80.6 °F 87.1 °F 77.0 °F 89% 29.80 in 6.2 mi ENE 8.1 mph - N/A   Scattered Clouds
7:00 PM 78.8 °F - 77.0 °F 94% 29.83 in 6.2 mi ENE 10.4 mph - N/A Rain Light Rain Showers
8:00 PM 80 °F - 77 °F 89% 29.85 in 17 mi NE 11.5 mph - - Thunderstorm Thunderstorm
8:00 PM 80.6 °F 87.1 °F 77.0 °F 89% 29.83 in 6.2 mi NE 11.5 mph - N/A Thunderstorm Thunderstorm
9:00 PM 80.6 °F 86.2 °F 75.2 °F 84% 29.86 in 6.2 mi NE 6.9 mph - N/A Thunderstorm Scattered Clouds
10:00 PM 80.6 °F 87.1 °F 77.0 °F 89% 29.86 in 5.0 mi ENE 16.1 mph 23.0 mph N/A Rain , Thunderstorm Heavy Rain Showers